{"data":{"norad_id":56923,"intl_designator":"2023-083AZ","name":"STARLINK-5952","alt_names":[],"object_type":"PAYLOAD","status":"ACTIVE","operator":null,"country":"US","launch_date":"2023-06-12","launch_site_code":"AFETR","launch_vehicle":null,"mission":null,"orbit_class":"UNKNOWN","rcs_meters":null,"size_class":null,"mass_kg":null,"dimensions":null,"purposes":["comms"],"wikipedia_slug":null,"has_3d_model":false,"image_url":null,"decayed_at":null,"tle_current":{"epoch":"2026-09-20T16:42:08.846208Z","epoch_age_seconds":100696,"freshness":"FRESH","line1":"1 56923U 23083AZ  26263.69593572  .00000175  00000+0  15869-4 0  9991","line2":"2 56923  43.0035  49.2255 0001192 255.7142 104.3578 15.27578173181620","mean_motion":15.27578173,"eccentricity":0.0001192,"inclination_deg":43.0035,"raan_deg":49.2255,"arg_perigee_deg":255.7142,"mean_anomaly_deg":104.3578,"bstar":1.5869e-5,"rev_number":18162,"period_min":94.266861457702,"perigee_km":482.23671270561,"apogee_km":483.87242077512,"semimajor_km":6861.1915667404,"source":"CELESTRAK","updated_at":"2026-09-21T09:00:33.529805Z"}}}